This demonstration page uses our WeatherBlox Daily Observations layout. Learn more.

Left ArrowRight Arrow

38.20091, -84.87328

Hourly Observations for July 10, 2022

Temp ( °F °C ) Dew Point ( °F °C ) Humidity (%) Winds ( mph kmh ) Pressure ( in mb ) Visibility ( mi km ) Precip ( " mm )
12:22 am 00:22 Clear with Mist and Fog 68 20 66 18.9 93 93 Calm 30.02 1017 1 2 0.00 0.00
12:34 am 00:34 Clear with Mist and Fog 68 20 66 18.9 93 93 Calm 30.01 1016 2 3 0.00 0.00
12:39 am 00:39 Mostly Clear with Mist and Fog 68 20 66 18.9 93 93 Calm 30.02 1017 3 5 0.00 0.00
12:41 am 00:41 Mostly Clear with Mist and Fog 68 20 66 18.9 93 93 Calm 30.02 1017 2 3 0.00 0.00
12:45 am 00:45 Mostly Cloudy with Mist and Fog 68 20 66 18.9 93 93 Calm 30.02 1017 1 1 0.00 0.00
12:53 am 00:53 Partly Cloudy with Mist and Fog 68 20 66 18.9 93 93 Calm 30.02 1017 1 2 0.00 0.00
12:56 am 00:56 Mostly Clear with Mist and Fog 68 20 66 18.9 93 93 NNW 3 6 30.02 1017 3 5 0.00 0.00
1:53 am 01:53 Clear 71 21.7 67 19.4 87 87 N 5 7 30.01 1016 10 16 0.00 0.00
2:53 am 02:53 Clear 70 21.1 65 18.3 84 84 NNE 5 7 30.00 1016 10 16 0.00 0.00
3:53 am 03:53 Clear 69 20.6 63 17.2 81 81 NNE 5 7 29.98 1015 10 16 0.00 0.00
4:53 am 04:53 Clear 68 20 62 16.7 81 81 N 6 9 29.98 1015 10 16 0.00 0.00
5:53 am 05:53 Clear 67 19.4 60 15.6 79 79 VRB 3 6 29.99 1016 10 16 0.00 0.00
6:53 am 06:53 Sunny 65 18.3 59 15 81 81 N 6 9 30.01 1016 10 16 0.00 0.00
7:53 am 07:53 Sunny 67 19.4 59 15 76 76 NNE 6 9 30.02 1017 10 16 0.00 0.00
8:53 am 08:53 Sunny 70 21.1 60 15.6 71 71 VRB 5 7 30.03 1017 10 16 0.00 0.00
9:53 am 09:53 Sunny 73 22.8 62 16.7 69 69 NE 8 13 30.03 1017 10 16 0.00 0.00
10:53 am 10:53 Sunny 78 25.6 65 18.3 64 64 NNE 7 11 30.03 1017 10 16 0.00 0.00
11:53 am 11:53 Sunny 81 27.2 65 18.3 58 58 NNE 5 7 30.02 1017 10 16 0.00 0.00
12:53 pm 12:53 Sunny 83 28.3 66 18.9 57 57 N 6 9 30.01 1016 10 16 0.00 0.00
1:53 pm 13:53 Sunny 85 29.4 65 18.3 51 51 ENE 8 13 29.99 1016 10 16 0.00 0.00
2:53 pm 14:53 Mostly Sunny 86 30 65 18.3 49 49 NNE 7 11 29.98 1015 10 16 0.00 0.00
3:53 pm 15:53 Mostly Sunny 87 30.6 65 18.3 48 48 NE 6 9 29.96 1015 10 16 0.00 0.00
4:53 pm 16:53 Mostly Cloudy 87 30.6 66 18.9 50 50 VRB 7 11 29.96 1014 10 16 0.00 0.00
5:53 pm 17:53 Mostly Sunny 87 30.6 64 17.8 46 46 N 7 11 29.95 1014 10 16 0.00 0.00
6:53 pm 18:53 Mostly Sunny 86 30 65 18.3 49 49 E 8 13 29.94 1014 10 16 0.00 0.00
7:53 pm 19:53 Mostly Sunny 86 30 65 18.3 49 49 N 5 7 29.94 1014 10 16 0.00 0.00
8:53 pm 20:53 Sunny 83 28.3 65 18.3 55 55 N 3 6 29.94 1014 10 16 0.00 0.00
9:53 pm 21:53 Clear 75 23.9 68 20 79 79 NNW 3 6 29.94 1014 10 16 0.00 0.00
10:53 pm 22:53 Clear 71 21.7 67 19.4 87 87 Calm 29.96 1014 10 16 0.00 0.00
11:53 pm 23:53 Clear 70 21.1 67 19.4 90 90 Calm 29.95 1014 10 16 0.00 0.00

Powered by AerisWeather